Temp
17 18 18 18 18 18 18 18 18 18 19 19 19 19 19 20 20 21 22 22 23 22 22 22 22 23 23 24 24 24 26 26 25 26 27 27 27 24 24 26 25 24 24 24 24
18 18 18 18 18 18 18 18 18 18 18 18 18 19 19 20 20 22 22 22 22 22 22 22 22 23 23 23 23 25 25 26 25 25 27 27 25 25 26 26 26 24 20 18 17
18 18 18 18 18 18 18 18 18 18 18 18 18 19 19 20 20 22 22 22 22 22 22 22 22 23 23 22 22 22 25 26 26 25 25 26 26 19 23 25 21 22 18 17 17
18 18 18 18 18 18 18 18 18 18 18 18 18 19 19 19 23 22 22 23 22 21 21 22 22 22 23 24 22 25 24 26 26 25 24 21 20 16 19 20 19 18 18 17 17
18 18 18 18 18 18 18 18 18 18 18 18 18 18 18 19 22 22 23 23 22 21 21 22 22 21 24 23 22 25 25 23 24 22 19 18 17 16 16 15 15 15 17 14 14
18 18 18 18 18 18 18 18 18 18 18 18 18 18 18 19 22 22 22 22 22 21 21 22 22 23 22 23 24 24 24 22 20 21 19 16 15 16 15 15 14 13 13 12 11
19 19 18 18 18 18 18 18 18 18 18 18 18 18 18 21 21 22 22 22 22 21 21 22 22 23 22 23 22 22 24 23 17 19 20 18 15 14 13 14 13 12 11 10 10
19 19 19 18 18 18 18 18 18 18 18 17 17 18 19 21 22 22 22 22 22 21 21 22 22 22 22 22 22 24 24 25 17 19 16 19 12 12 12 12 12 11 11 10 9
19 18 18 18 18 18 18 18 17 17 17 17 17 17 20 21 22 22 22 22 22 22 21 21 21 21 22 24 24 23 25 22 18 15 17 18 12 11 10 10 10 9 9 9 8
19 18 18 18 18 18 18 17 17 17 17 17 17 17 21 21 22 22 22 22 22 22 21 21 21 23 22 24 24 24 21 16 16 14 15 13 12 11 10 10 9 8 8 8 7
19 19 18 18 18 18 17 17 17 17 17 20 20 21 21 21 22 22 23 22 22 22 23 20 23 23 24 23 23 22 20 15 15 15 13 12 11 11 9 9 9 8 7 7 6
19 19 18 18 17 17 17 17 17 17 17 19 19 19 21 21 21 22 22 22 22 23 21 22 23 23 22 21 22 20 18 16 15 15 14 12 11 10 9 8 7 7 6 6 6
19 19 18 18 17 17 18 18 18 17 17 19 19 20 21 22 22 22 22 23 23 22 22 23 23 22 22 21 20 20 21 17 16 14 14 15 13 12 11 9 8 7 6 5 4
18 18 18 18 17 18 18 18 18 18 19 20 20 21 22 22 23 22 23 23 23 23 22 23 22 23 22 22 22 20 21 19 16 17 18 16 17 12 11 11 8 7 6 5 4
18 18 18 18 18 18 18 19 19 18 19 21 21 21 22 23 23 22 22 23 23 23 22 23 23 23 23 24 22 24 21 19 18 20 18 16 19 12 11 11 9 7 5 4 4
18 18 18 18 18 18 19 19 19 19 19 22 22 22 22 22 21 21 22 23 21 22 21 23 21 22 23 22 22 21 20 19 19 20 21 15 17 13 11 8 8 6 5 4 3
17 18 18 18 18 18 19 19 19 18 21 21 21 22 23 22 21 20 20 20 22 22 21 21 22 21 21 23 22 21 21 20 20 20 21 14 16 11 8 7 6 5 4 3 3
17 18 18 18 18 19 19 20 17 19 20 20 21 21 22 22 19 19 19 20 17 19 20 21 21 20 20 20 23 23 23 24 21 20 21 13 15 10 7 6 5 4 4 3 3
17 17 18 18 18 19 19 18 18 18 19 19 20 21 21 21 21 19 18 19 18 17 21 20 21 19 19 19 19 21 22 19 20 17 20 13 8 8 7 7 5 5 4 3 2
17 17 17 18 18 18 19 16 17 17 18 19 19 19 20 20 21 20 18 16 17 16 15 19 20 18 19 18 19 20 18 21 20 20 20 14 11 12 7 7 6 5 3 3 2
17 17 17 18 18 18 18 17 17 17 16 18 18 19 18 18 18 18 18 15 15 16 16 17 18 19 18 16 17 19 19 17 18 17 20 21 15 8 7 6 5 4 3 2 2
17 17 16 17 17 12 17 15 15 16 15 17 17 17 17 16 16 16 17 15 13 14 17 14 16 17 15 13 14 13 14 15 20 18 14 16 12 6 6 4 4 3 2 2 2
17 16 16 16 17 16 14 16 15 16 14 15 16 15 14 15 16 14 14 13 13 14 15 14 13 16 15 15 14 13 11 12 12 14 13 17 12 5 5 4 3 3 2 2 1
16 17 15 15 12 14 15 15 15 13 13 12 14 14 14 14 13 14 14 13 12 12 10 11 10 12 17 14 12 12 10 10 13 16 13 11 7 5 5 5 4 3 2 2 2
15 12 11 13 13 11 12 13 14 13 12 12 14 12 13 14 13 13 13 13 12 11 10 11 9 9 9 9 9 9 9 10 11 10 14 9 8 7 6 4 4 3 2 2 2
14 13 11 9 9 12 10 11 12 12 11 12 11 11 11 13 13 14 13 13 13 11 10 9 8 10 8 9 9 8 8 8 8 8 8 8 6 5 4 3 3 3 2 2 2
13 13 13 8 10 11 10 10 10 10 10 10 10 11 11 9 9 9 8 8 10 12 10 10 9 10 9 9 10 11 7 7 6 7 8 8 7 4 4 3 3 3 2 2 1
Height
1510 1509 1508 1508 1508 1508 1508 1508 1508 1508 1508 1509 1509 1510 1510 1510 1509 1509 1508 1510 1510 1512 1514 1516 1519 1520 1523 1524 1525 1525 1528 1529 1531 1530 1524 1521 1518 1517 1518 1520 1521 1520 1521 1523 1524
1508 1507 1507 1506 1506 1506 1506 1506 1506 1506 1507 1507 1508 1508 1508 1508 1507 1506 1507 1507 1508 1510 1513 1515 1518 1520 1522 1523 1524 1524 1527 1527 1528 1527 1523 1522 1520 1519 1518 1520 1525 1526 1528 1532 1536
1507 1506 1505 1504 1504 1504 1504 1504 1504 1505 1505 1506 1506 1507 1507 1507 1506 1504 1504 1505 1506 1508 1511 1514 1517 1519 1521 1522 1523 1525 1524 1524 1526 1526 1524 1525 1526 1534 1526 1527 1536 1532 1533 1537 1541
1505 1505 1504 1503 1502 1502 1502 1502 1503 1503 1504 1504 1504 1505 1505 1506 1506 1503 1503 1503 1504 1507 1511 1513 1515 1518 1519 1520 1522 1523 1524 1523 1523 1526 1528 1532 1536 1540 1540 1544 1541 1535 1538 1542 1544
1504 1503 1502 1502 1501 1500 1500 1501 1501 1502 1502 1503 1504 1505 1505 1506 1503 1503 1503 1502 1504 1507 1510 1512 1514 1516 1516 1519 1521 1521 1522 1523 1525 1531 1536 1539 1545 1552 1552 1556 1547 1539 1534 1542 1545
1503 1502 1501 1500 1500 1499 1499 1499 1500 1500 1501 1502 1503 1503 1504 1505 1501 1502 1503 1504 1506 1508 1510 1512 1513 1514 1516 1517 1518 1518 1521 1526 1530 1529 1536 1543 1550 1547 1564 1563 1550 1545 1543 1545 1546
1501 1500 1499 1499 1499 1498 1498 1498 1499 1499 1500 1501 1502 1502 1502 1501 1500 1502 1503 1505 1506 1509 1510 1511 1512 1514 1515 1517 1518 1519 1521 1524 1536 1533 1532 1535 1552 1571 1572 1568 1559 1556 1553 1551 1552
1500 1498 1498 1497 1497 1497 1497 1498 1498 1498 1499 1500 1501 1501 1499 1498 1499 1501 1503 1505 1506 1509 1511 1512 1513 1514 1515 1516 1518 1518 1519 1521 1540 1533 1538 1534 1579 1579 1577 1571 1567 1565 1561 1558 1556
1498 1497 1496 1496 1496 1496 1497 1497 1498 1499 1499 1499 1501 1500 1497 1497 1498 1500 1503 1505 1506 1509 1511 1512 1513 1515 1516 1515 1517 1518 1518 1526 1538 1541 1538 1540 1576 1583 1580 1576 1573 1571 1568 1565 1561
1496 1496 1495 1495 1495 1496 1496 1497 1498 1499 1499 1499 1499 1502 1496 1497 1497 1498 1502 1504 1506 1508 1512 1513 1514 1514 1516 1513 1521 1517 1528 1546 1547 1561 1551 1562 1577 1584 1582 1578 1576 1575 1573 1570 1566
1495 1495 1494 1494 1495 1496 1497 1498 1501 1501 1497 1495 1495 1493 1493 1495 1495 1497 1499 1503 1505 1508 1508 1512 1512 1514 1510 1512 1513 1517 1527 1546 1556 1558 1562 1574 1578 1584 1584 1579 1576 1576 1575 1573 1570
1493 1494 1494 1494 1495 1496 1498 1498 1499 1501 1496 1490 1491 1490 1491 1493 1495 1495 1498 1502 1504 1506 1510 1512 1512 1509 1511 1513 1515 1519 1532 1549 1555 1558 1562 1576 1581 1587 1586 1584 1582 1580 1578 1573 1570
1492 1492 1493 1494 1495 1497 1497 1498 1498 1497 1497 1489 1487 1487 1489 1492 1492 1493 1496 1499 1502 1506 1507 1509 1507 1508 1509 1514 1518 1520 1519 1536 1544 1559 1566 1561 1577 1581 1585 1586 1585 1582 1581 1577 1574
1491 1491 1492 1494 1498 1496 1497 1497 1496 1496 1497 1488 1486 1485 1488 1489 1491 1492 1495 1498 1500 1502 1506 1506 1505 1505 1506 1506 1508 1520 1514 1523 1538 1538 1546 1553 1558 1578 1582 1583 1584 1583 1581 1579 1576
1489 1490 1491 1493 1495 1497 1498 1496 1495 1496 1509 1487 1485 1485 1486 1489 1489 1491 1492 1495 1496 1499 1503 1503 1502 1502 1502 1497 1501 1499 1504 1514 1525 1528 1535 1551 1545 1575 1581 1581 1585 1586 1585 1584 1580
1488 1488 1490 1492 1495 1496 1496 1495 1497 1501 1508 1486 1483 1484 1486 1487 1489 1491 1492 1494 1496 1498 1501 1499 1500 1499 1497 1497 1499 1502 1514 1525 1530 1527 1530 1549 1545 1568 1577 1587 1588 1588 1588 1585 1580
1487 1487 1488 1492 1494 1495 1495 1497 1502 1507 1488 1489 1486 1483 1483 1486 1489 1491 1494 1497 1497 1504 1505 1501 1499 1499 1499 1496 1501 1502 1508 1529 1537 1533 1525 1554 1549 1570 1586 1590 1591 1590 1588 1586 1582
1486 1486 1487 1491 1493 1494 1495 1497 1512 1498 1492 1488 1486 1484 1484 1485 1492 1494 1496 1499 1503 1501 1504 1504 1509 1501 1502 1500 1493 1497 1497 1496 1522 1524 1520 1552 1548 1572 1587 1590 1590 1589 1587 1584 1581
1485 1486 1487 1490 1492 1494 1496 1503 1501 1499 1495 1493 1486 1486 1486 1486 1487 1493 1498 1498 1502 1502 1500 1504 1504 1502 1503 1502 1502 1496 1497 1504 1508 1525 1519 1554 1577 1583 1585 1586 1587 1587 1586 1585 1583
1486 1486 1487 1489 1492 1494 1496 1503 1500 1498 1497 1494 1494 1491 1489 1490 1489 1492 1497 1503 1502 1503 1503 1500 1505 1504 1503 1504 1503 1498 1504 1503 1505 1517 1518 1545 1556 1552 1578 1581 1585 1586 1586 1585 1583
1486 1486 1488 1490 1493 1495 1498 1500 1499 1499 1498 1497 1495 1494 1494 1493 1494 1495 1496 1505 1505 1503 1504 1502 1501 1505 1503 1512 1512 1505 1503 1512 1510 1518 1507 1508 1538 1572 1577 1582 1584 1587 1588 1584 1583
1486 1488 1490 1491 1495 1499 1498 1500 1501 1499 1498 1498 1497 1497 1497 1499 1499 1499 1499 1504 1506 1505 1502 1506 1505 1508 1515 1521 1519 1517 1520 1518 1505 1517 1530 1520 1550 1577 1580 1583 1585 1583 1588 1584 1582
1487 1489 1492 1493 1494 1497 1500 1500 1501 1500 1501 1500 1500 1501 1502 1502 1502 1504 1505 1507 1506 1505 1504 1507 1515 1513 1517 1518 1519 1520 1526 1526 1524 1524 1533 1520 1545 1576 1580 1582 1583 1585 1584 1582 1580
1488 1490 1494 1494 1498 1498 1499 1502 1502 1503 1504 1504 1503 1502 1503 1505 1507 1505 1506 1506 1506 1507 1508 1509 1522 1517 1501 1513 1521 1525 1531 1530 1524 1515 1532 1542 1563 1574 1577 1580 1582 1583 1583 1581 1579
1488 1495 1497 1501 1502 1503 1503 1506 1505 1508 1507 1506 1504 1507 1507 1505 1506 1505 1505 1505 1507 1508 1510 1512 1525 1529 1532 1530 1529 1535 1534 1531 1530 1537 1526 1550 1555 1568 1575 1579 1581 1581 1581 1579 1577
1491 1495 1500 1506 1507 1506 1508 1514 1511 1512 1512 1510 1511 1510 1508 1507 1506 1503 1504 1504 1503 1509 1511 1517 1530 1527 1537 1537 1536 1539 1544 1543 1544 1546 1550 1555 1565 1573 1577 1580 1581 1581 1580 1578 1577
1495 1497 1499 1512 1511 1510 1519 1519 1517 1514 1517 1515 1514 1512 1511 1512 1510 1508 1507 1507 1507 1507 1512 1515 1522 1524 1531 1537 1534 1533 1550 1549 1554 1551 1553 1551 1562 1573 1576 1578 1579 1579 1579 1577 1576
Wind_Speed
7 7 6 6 7 7 6 7 7 8 8 7 7 8 8 9 11 13 14 8 6 12 11 10 7 9 9 8 7 7 3 6 1 1 5 12 8 3 2 4 2 2 0 1 9
8 7 7 7 7 7 6 6 6 7 7 6 6 7 6 8 11 13 6 5 9 12 17 12 9 9 6 6 5 5 6 6 2 1 7 12 6 8 4 4 9 6 13 14 12
9 8 7 7 7 7 6 6 6 6 6 6 5 5 5 6 8 3 3 4 10 11 13 14 10 8 4 5 4 4 10 8 4 8 11 10 15 35 25 14 21 15 15 17 16
9 8 8 7 7 7 6 5 5 5 5 5 5 5 5 4 2 5 0 4 11 17 14 12 10 8 6 7 6 6 7 12 12 7 6 11 11 39 39 18 20 26 25 23 21
10 9 8 7 7 6 5 5 5 5 5 5 5 4 4 5 5 2 2 5 13 15 14 11 12 7 5 5 7 6 5 10 8 12 28 30 30 37 37 26 29 31 31 29 25
10 9 8 6 6 6 5 4 4 4 4 5 4 4 4 4 4 3 5 7 8 11 9 10 9 6 6 5 5 10 7 9 18 18 20 29 22 28 28 23 34 36 36 33 30
10 9 7 6 6 5 4 3 4 4 4 4 4 5 8 8 6 7 9 8 6 5 6 10 11 3 7 4 2 4 5 5 29 7 2 5 30 20 20 22 31 34 34 34 33
9 8 6 6 5 3 2 3 3 3 4 4 4 5 6 4 11 8 9 9 8 7 6 5 6 3 2 5 2 2 2 7 17 8 10 8 9 18 18 22 28 28 30 32 34
9 7 5 4 3 1 3 3 3 3 3 3 4 4 4 3 9 11 9 8 6 5 7 5 5 3 3 3 2 1 6 2 5 22 5 8 12 14 18 21 25 26 27 27 29
9 6 4 3 1 2 3 4 2 2 3 3 6 3 2 4 4 10 11 11 5 6 7 3 2 2 2 5 9 6 7 10 9 14 27 25 19 16 19 22 24 24 25 26 28
8 5 3 1 3 4 5 3 2 2 7 6 3 4 7 2 5 8 14 14 6 4 4 2 4 7 9 7 2 9 10 18 17 8 18 19 18 15 17 23 25 25 26 26 26
7 4 2 2 5 5 4 2 2 3 7 9 14 17 14 9 2 7 12 9 6 4 5 3 6 6 4 5 11 13 23 15 10 14 16 16 18 14 18 21 22 23 25 27 26
5 3 3 4 5 5 3 2 3 7 3 5 6 9 8 8 5 8 18 8 6 6 7 5 3 9 6 9 15 15 17 18 13 9 17 20 9 7 11 17 19 22 22 24 26
4 3 5 6 4 4 3 4 9 2 2 2 3 4 9 6 3 5 16 10 3 8 7 5 2 6 6 8 15 11 16 20 25 13 6 16 5 4 3 11 19 22 24 25 25
4 3 7 9 2 6 2 6 1 2 2 2 2 3 11 6 9 3 14 7 8 6 5 3 5 5 6 3 16 4 27 26 23 9 12 10 4 5 1 4 13 19 21 21 22
4 4 9 12 6 3 3 0 1 2 2 2 4 5 6 3 2 4 4 6 4 4 1 4 1 2 1 1 8 17 21 10 13 2 6 3 5 5 4 3 9 14 17 19 21
4 3 10 12 7 2 1 3 2 3 4 3 1 4 6 4 3 2 3 3 2 3 1 0 1 3 3 4 10 9 17 5 6 6 5 3 4 6 7 5 8 12 14 16 18
2 2 9 13 8 1 4 2 2 2 3 3 3 2 8 4 2 2 4 4 2 1 2 2 5 4 7 3 2 14 8 6 9 6 5 0 4 6 8 5 7 8 11 15 19
1 1 5 13 9 2 2 2 3 2 4 7 5 3 4 2 3 3 1 4 2 1 3 4 3 1 4 5 3 3 5 2 3 3 4 5 3 5 7 2 7 9 10 13 14
2 3 4 12 9 4 2 2 2 2 5 3 3 3 3 1 4 5 6 2 3 1 2 3 3 2 2 1 9 2 3 3 1 6 9 4 3 4 8 1 6 10 12 13 14
2 3 3 14 10 2 2 3 2 0 4 4 2 2 2 1 1 3 3 2 1 1 1 2 3 3 1 7 3 1 2 4 3 2 4 6 4 5 6 3 4 8 9 10 12
2 2 9 11 3 1 2 2 5 3 8 3 2 4 3 2 1 1 3 1 2 1 2 1 1 2 3 5 6 3 3 1 4 4 2 3 5 5 5 5 2 5 7 10 11
2 4 6 2 2 1 0 2 4 4 5 5 2 4 3 2 2 1 1 1 2 1 2 4 1 4 3 4 2 3 3 3 5 2 2 3 4 6 5 3 3 4 7 10 12
2 2 5 6 5 1 2 2 2 8 3 3 3 2 1 1 2 2 3 2 2 6 9 6 4 4 5 3 2 3 4 2 1 3 7 2 10 6 3 1 1 4 7 10 12
4 3 3 2 7 6 3 4 3 5 9 10 3 6 3 2 1 3 3 3 4 3 5 3 5 7 10 8 10 10 9 5 5 5 3 12 10 9 5 1 2 5 8 11 12
3 3 8 5 4 5 8 7 6 3 7 5 4 8 4 2 3 2 4 3 1 4 3 2 7 7 8 10 13 15 11 16 16 16 15 14 9 6 5 3 2 3 6 10 12
9 9 5 11 5 3 4 4 7 2 4 6 4 2 9 8 4 4 8 9 3 2 3 3 9 4 7 4 5 8 7 8 9 7 11 5 6 11 7 4 1 3 6 9 12
Wind_Direction
327 321 313 312 310 304 283 268 258 251 251 257 263 266 272 277 277 274 270 261 218 191 176 182 183 175 176 172 172 155 184 232 241 228 340 337 343 23 39 136 112 174 216 306 180
326 321 315 312 311 307 291 274 258 248 246 251 263 270 277 279 283 280 255 223 206 198 206 202 183 163 141 163 165 177 204 229 174 241 302 316 329 353 304 48 18 329 33 53 87
328 321 316 313 309 306 295 282 265 254 247 247 258 271 279 288 297 159 166 205 199 175 178 188 184 156 131 166 164 169 216 228 233 235 273 350 24 34 11 26 358 25 85 75 72
330 323 314 310 308 304 297 285 267 255 242 243 255 264 271 272 195 169 262 215 196 182 172 171 169 153 157 172 168 187 216 228 252 304 39 45 26 46 44 41 69 82 81 73 67
332 324 314 310 308 302 295 282 268 256 242 239 241 245 260 257 243 202 132 115 169 178 182 183 170 153 159 155 151 195 183 213 295 79 76 70 61 59 44 50 68 76 80 66 62
332 326 317 312 309 300 290 263 251 250 236 240 245 245 245 253 204 164 124 130 155 170 189 184 179 145 121 164 205 187 179 71 38 99 95 73 50 59 34 50 63 64 66 64 59
330 326 320 314 311 300 278 239 229 231 230 229 239 253 258 239 174 148 139 149 134 168 181 171 154 134 136 146 201 161 150 160 27 345 102 281 37 38 38 52 62 61 62 60 54
332 327 322 318 315 291 230 210 221 227 218 226 244 265 253 209 199 183 161 149 137 144 131 129 173 108 107 126 66 203 167 184 34 14 24 72 63 36 39 56 59 58 57 56 51
336 330 322 320 314 227 180 176 188 205 218 234 253 258 267 209 210 198 184 173 156 164 156 112 128 107 132 157 190 101 188 65 82 17 52 86 107 50 48 57 57 52 49 47 46
333 329 318 320 283 177 155 144 158 211 227 245 252 286 212 134 170 206 196 173 139 121 128 143 103 135 132 198 210 193 130 68 59 58 85 91 93 67 53 57 53 46 42 41 41
332 320 300 279 158 156 142 108 14 294 239 237 258 256 286 164 176 186 205 201 183 164 163 101 189 210 218 219 113 107 106 115 133 129 67 87 85 64 51 50 44 37 33 31 31
334 310 267 185 163 156 134 54 60 338 302 272 248 253 250 272 214 171 178 158 169 174 134 158 228 215 195 183 134 123 123 118 65 111 106 109 87 74 56 52 45 34 28 22 19
334 286 225 187 170 161 156 82 331 300 275 281 249 242 234 196 196 183 171 162 151 157 181 204 141 143 184 154 145 160 159 166 139 113 131 126 94 85 67 55 43 36 28 25 17
332 242 197 190 189 181 156 309 319 237 310 252 239 210 173 151 144 176 176 168 156 208 172 227 191 210 194 209 186 182 194 151 147 152 174 213 149 167 63 44 33 25 21 16 13
334 222 192 180 184 162 255 319 133 94 316 57 156 177 165 179 143 113 185 182 185 177 191 152 198 231 245 230 184 224 161 168 169 153 139 172 213 118 85 25 16 15 14 13 12
327 222 192 189 159 170 321 156 137 275 254 58 146 160 162 183 90 116 144 156 127 145 307 256 279 251 292 112 171 122 127 112 164 188 228 153 243 156 163 34 5 10 10 10 10
322 223 196 189 176 160 135 156 315 230 339 14 9 174 173 146 93 58 56 58 198 193 209 260 151 331 6 185 144 134 158 134 186 213 241 114 210 70 130 77 21 3 3 8 11
320 234 194 178 169 153 159 90 254 288 307 352 340 284 187 151 67 105 126 147 78 145 150 223 191 10 359 342 204 176 226 219 213 198 191 89 179 143 139 94 28 14 4 4 7
27 127 172 185 174 161 155 153 245 243 320 328 314 193 162 103 132 135 100 160 155 201 221 176 197 309 42 25 312 160 212 30 119 99 185 134 135 167 173 77 21 14 6 4 3
76 98 140 178 180 169 87 230 262 278 323 316 322 8 194 80 187 200 178 135 163 25 255 170 184 45 10 226 57 7 96 177 142 231 246 182 211 132 189 52 17 15 9 2 360
65 113 113 145 151 130 198 228 280 54 360 350 337 325 48 24 60 184 139 107 22 105 119 160 265 137 232 23 353 49 131 58 88 341 271 247 128 130 137 107 52 9 3 7 360
45 88 149 147 83 51 168 182 356 359 19 9 58 33 35 57 80 195 221 36 352 276 185 85 87 111 84 94 71 70 96 34 254 197 52 348 122 128 126 123 39 38 356 6 1
80 102 153 170 162 163 160 103 51 25 32 18 57 28 30 67 286 213 172 42 15 124 161 162 59 146 155 201 166 61 47 96 108 119 141 254 117 155 140 141 55 358 353 354 354
119 114 62 62 60 53 117 24 100 31 71 2 16 116 115 117 26 183 179 57 85 97 78 86 73 8 264 45 75 115 30 4 280 197 147 85 145 174 160 163 333 350 348 344 345
52 79 69 35 38 54 56 12 33 12 358 20 86 29 315 246 204 215 194 163 91 123 65 81 99 90 66 77 94 89 68 81 103 108 245 144 145 163 157 107 329 326 337 345 351
75 109 78 51 12 43 16 13 30 30 9 10 36 347 345 286 303 280 190 217 159 84 81 59 131 125 69 97 98 90 74 81 87 92 95 122 122 150 158 182 237 306 340 350 353
70 79 92 14 28 66 23 27 30 326 49 47 331 8 26 350 350 69 95 74 85 135 118 113 148 163 143 147 172 94 46 87 101 93 136 152 126 159 168 181 202 332 347 349 350